CAPE
0 0 0 0 0 0 0 8 20 70 353 588 692 770 830 925 1116 1152 676 591 667 800 969 1040 1031 1001 922 808 758 972 1238 1459 1542 1575 1414 1220 1028 704 463 421 485 424
0 0 1 0 1 1 0 0 6 10 21 201 445 568 661 722 929 1204 1128 621 523 628 809 949 1013 998 896 731 674 748 1033 1306 1514 1574 1523 1302 1176 1028 768 514 403 352
0 0 0 0 0 0 0 0 0 0 0 1 34 361 586 662 728 1005 1223 1155 717 492 599 773 785 798 787 751 725 649 760 1006 1252 1428 1404 1242 1055 974 919 757 509 335
0 0 0 0 0 0 0 0 0 0 0 0 0 6 324 726 804 818 923 1117 1125 737 479 524 663 739 802 818 762 634 709 882 1086 1169 1170 1034 837 698 727 714 660 501
0 0 0 0 0 0 0 0 0 0 0 0 0 0 12 269 801 897 856 988 1113 1146 808 487 491 570 718 844 860 858 836 947 981 928 797 693 732 725 632 596 636 614
0 0 0 0 0 0 0 0 0 0 0 0 0 0 0 0 130 606 780 789 900 1012 1047 873 506 536 570 627 704 745 753 772 720 662 627 617 653 733 814 801 761 705
0 0 0 0 0 0 0 0 0 0 0 0 0 0 0 0 0 129 566 711 747 787 818 860 1048 1138 972 555 604 662 688 778 827 803 789 799 883 958 1013 976 1066 1168
2 0 0 0 0 0 0 0 0 0 0 0 0 0 0 0 0 0 42 316 314 475 520 536 529 666 745 804 645 816 1073 1267 1294 1306 1320 1332 1356 1394 1412 1406 1356 1441
0 0 0 0 0 0 0 0 0 0 0 0 0 0 0 0 0 0 0 57 345 366 294 268 266 356 470 812 1095 1175 1250 1439 1534 1534 1506 1512 1528 1556 1606 1650 1628 1493
0 0 0 0 0 0 0 0 0 0 0 0 0 0 0 0 0 0 0 0 0 173 197 105 121 157 303 448 714 1094 1371 1461 1477 1439 1385 1277 1213 1267 1422 1588 1729 1761
0 0 0 0 0 0 0 0 0 0 0 0 0 0 0 0 0 0 0 0 0 0 16 46 57 57 92 271 382 495 686 963 1253 1418 1389 1217 1020 901 1038 1153 1444 1576
0 0 0 0 0 0 0 0 0 0 0 0 0 0 0 0 0 0 0 0 0 0 0 29 62 63 47 142 275 385 450 504 578 702 901 1046 944 741 790 988 1283 1393
0 0 0 0 0 0 0 0 0 0 0 0 0 0 0 0 0 0 0 0 0 0 0 0 75 136 122 74 79 341 374 433 454 456 600 691 748 614 664 820 920 1016
0 0 0 0 1 2 2 0 0 0 0 0 0 0 0 0 0 0 0 0 0 0 0 0 0 38 140 207 312 403 492 503 474 547 624 780 868 917 959 948 956 1298
0 0 3 4 4 4 6 7 7 4 0 0 0 0 0 0 0 0 0 0 0 0 0 0 0 0 46 165 281 360 466 544 557 570 647 698 794 941 1034 902 1038 1353
2 4 5 4 5 2 5 10 9 8 5 1 0 0 0 0 0 0 0 0 0 0 0 0 0 0 0 17 39 328 387 498 586 635 688 738 842 943 979 867 1098 1347
7 6 4 6 5 6 8 7 7 8 7 2 0 0 0 0 0 0 0 0 0 0 0 0 0 0 0 0 0 0 8 356 526 625 706 773 806 826 826 991 1178 1368
5 2 4 2 7 5 6 7 5 4 4 3 2 0 0 0 0 0 0 0 0 0 0 0 0 0 0 0 0 0 0 21 356 556 698 787 824 821 930 1016 1085 1206
1 3 0 2 3 4 2 2 3 3 3 2 0 0 0 0 0 0 0 0 0 0 0 0 0 0 0 0 0 0 0 0 0 204 490 603 810 940 993 1039 1035 965
5 0 1 4 6 7 4 2 3 1 0 0 0 0 0 0 0 0 0 0 0 0 0 0 0 0 0 0 0 0 0 0 0 0 31 267 567 815 987 1101 1166 1178
0 6 1 5 6 9 4 3 2 0 0 0 0 0 0 0 0 0 0 0 0 0 0 0 0 0 0 0 0 0 0 0 0 0 0 16 145 413 718 952 1136 1241
1 5 1 6 6 5 6 4 5 3 0 0 0 0 0 0 0 0 0 0 0 0 0 0 0 0 0 0 0 0 0 0 0 0 0 0 10 98 233 528 806 1015
1 0 0 2 1 3 6 4 3 4 4 1 0 0 0 0 0 0 0 0 0 0 0 0 0 0 0 0 0 0 0 0 0 0 0 0 0 0 106 309 386 520
0 0 0 0 0 0 10 3 0 1 2 5 3 0 0 0 0 0 0 0 0 0 0 0 0 0 0 0 0 0 0 0 0 0 0 0 0 0 3 85 436 609
0 0 0 0 0 0 17 3 2 4 4 2 2 3 3 1 0 0 0 0 0 0 0 0 0 4 8 12 15 5 4 0 3 15 4 0 0 0 118 226 242 310
0 0 0 0 0 0 12 3 4 3 2 2 2 3 3 2 2 2 2 0 0 0 0 0 0 0 2 17 17 8 0 10 13 16 16 2 48 173 291 248 194 249
Wind_Speed
nan nan nan nan nan nan nan nan nan nan 22 20 20 29 35 38 39 36 34 31 29 30 31 33 34 34 33 31 31 32 31 30 31 31 29 26 25 25 24 26 28 25
nan nan nan nan nan nan nan nan nan nan nan 21 19 26 35 39 39 38 35 31 29 29 32 33 34 33 33 33 32 32 32 31 29 30 26 24 24 24 24 26 28 27
nan nan nan nan nan nan nan nan nan nan nan nan nan 23 29 36 37 37 35 32 31 31 33 34 35 36 36 34 33 32 31 29 27 27 25 23 25 24 25 28 30 28
nan nan nan nan nan nan nan nan nan nan nan nan nan nan 25 28 33 34 34 32 32 33 35 37 36 37 36 35 35 33 30 28 26 28 25 26 25 24 25 28 29 28
nan nan nan nan nan nan nan nan nan nan nan nan nan nan nan 27 28 31 33 33 33 34 36 36 37 37 36 36 35 33 32 30 30 30 27 25 25 24 24 26 25 23
nan nan nan nan nan nan nan nan nan nan nan nan nan nan nan nan 26 27 30 31 32 33 35 37 38 38 36 36 36 34 32 31 30 29 29 29 30 29 27 24 23 22
nan nan nan nan nan nan nan nan nan nan nan nan nan nan nan nan nan 26 28 31 32 32 33 35 37 37 36 35 34 31 29 28 29 29 30 34 37 33 29 25 23 22
nan nan nan nan nan nan nan nan nan nan nan nan nan nan nan nan nan nan nan 31 33 33 34 36 37 37 35 33 29 25 24 28 30 32 33 36 38 33 28 26 25 24
nan nan nan nan nan nan nan nan nan nan nan nan nan nan nan nan nan nan nan nan 34 36 37 40 40 37 36 34 29 25 24 28 35 37 35 35 34 29 25 26 27 27
nan nan nan nan nan nan nan nan nan nan nan nan nan nan nan nan nan nan nan nan nan 36 40 44 45 43 41 37 30 28 30 31 37 41 39 37 35 31 28 28 28 28
nan nan nan nan nan nan nan nan nan nan nan nan nan nan nan nan nan nan nan nan nan nan nan nan nan nan nan 39 31 29 29 32 37 41 40 39 38 35 31 33 33 30
nan nan nan nan nan nan nan nan nan nan nan nan nan nan nan nan nan nan nan nan nan nan nan nan nan nan nan 42 34 32 31 31 34 38 40 37 34 30 31 33 32 30
nan nan nan nan nan nan nan nan nan nan nan nan nan nan nan nan nan nan nan nan nan nan nan nan nan 53 52 nan nan 36 37 34 32 33 38 39 34 29 30 31 31 30
nan nan nan nan nan nan nan nan nan nan nan nan nan nan nan nan nan nan nan nan nan nan nan nan nan nan 55 52 48 45 45 41 36 35 37 40 40 35 34 33 31 30
nan nan nan nan nan nan nan nan nan nan nan nan nan nan nan nan nan nan nan nan nan nan nan nan nan nan nan 56 54 52 51 46 43 40 38 40 42 40 38 36 33 31
nan nan nan nan nan nan nan nan nan nan nan nan nan nan nan nan nan nan nan nan nan nan nan nan nan nan nan nan nan 53 54 52 48 45 42 43 43 44 43 40 36 34
nan nan nan nan nan nan nan nan nan nan nan nan nan nan nan nan nan nan nan nan nan nan nan nan nan nan nan nan nan nan nan 53 51 48 46 45 46 47 47 45 40 37
nan nan nan nan nan nan nan nan nan nan nan nan nan nan nan nan nan nan nan nan nan nan nan nan nan nan nan nan nan nan nan nan 55 53 51 50 49 48 48 48 46 44
nan nan nan nan nan nan nan nan nan nan nan nan nan nan nan nan nan nan nan nan nan nan nan nan nan nan nan nan nan nan nan nan nan 58 57 54 53 52 51 50 50 48
nan nan nan nan nan nan nan nan nan nan nan nan nan nan nan nan nan nan nan nan nan nan nan nan nan nan nan nan nan nan nan nan nan nan nan 58 57 56 56 54 52 52
nan nan nan nan nan nan nan nan nan nan nan nan nan nan nan nan nan nan nan nan nan nan nan nan nan nan nan nan nan nan nan nan nan nan nan nan 59 60 60 60 58 56
nan nan nan nan nan nan nan nan nan nan nan nan nan nan nan nan nan nan nan nan nan nan nan nan nan nan nan nan nan nan nan nan nan nan nan nan nan nan 63 63 60 58
nan nan nan nan nan nan nan nan nan nan nan nan nan nan nan nan nan nan nan nan nan nan nan nan nan nan nan nan nan nan nan nan nan nan nan nan nan nan 59 61 60 60
nan nan nan nan nan nan nan nan nan nan nan nan nan nan nan nan nan nan nan nan nan nan nan nan nan nan nan nan nan nan nan nan nan nan nan nan nan nan nan nan 56 51
nan nan nan nan nan nan nan nan nan nan nan nan nan nan nan nan nan nan nan nan nan nan nan nan nan nan nan nan nan nan nan nan nan nan nan nan nan nan 59 60 58 53
nan nan nan nan nan nan nan nan nan nan nan nan nan nan nan nan nan nan nan nan nan nan nan nan nan nan nan nan nan nan nan nan nan nan nan nan nan 62 62 61 58 57
Wind_Direction
nan nan nan nan nan nan nan nan nan nan 234 243 233 218 216 214 219 220 219 221 220 218 217 219 222 224 226 227 229 230 231 233 231 229 229 231 227 228 229 233 234 227
nan nan nan nan nan nan nan nan nan nan nan 231 225 215 215 216 215 218 223 226 225 220 220 220 222 225 227 228 228 228 227 227 226 225 227 231 235 237 231 230 232 230
nan nan nan nan nan nan nan nan nan nan nan nan nan 213 211 214 214 220 225 227 224 223 225 223 222 222 222 222 224 224 223 222 220 221 225 230 235 238 233 227 224 227
nan nan nan nan nan nan nan nan nan nan nan nan nan nan 215 215 216 217 222 226 226 225 227 226 222 221 220 218 217 214 215 217 219 225 225 227 230 231 228 224 218 218
nan nan nan nan nan nan nan nan nan nan nan nan nan nan nan 216 219 221 219 219 223 226 228 223 220 220 218 214 212 209 210 213 218 223 224 225 227 227 219 215 208 209
nan nan nan nan nan nan nan nan nan nan nan nan nan nan nan nan 221 223 223 220 219 219 220 219 218 220 216 208 205 205 209 214 219 223 223 225 224 222 213 206 199 201
nan nan nan nan nan nan nan nan nan nan nan nan nan nan nan nan nan 227 226 222 221 221 219 216 215 216 212 206 204 206 210 214 221 226 226 226 225 217 209 201 197 201
nan nan nan nan nan nan nan nan nan nan nan nan nan nan nan nan nan nan nan 226 223 222 222 219 214 212 213 213 211 212 217 222 223 225 226 229 228 219 211 204 200 202
nan nan nan nan nan nan nan nan nan nan nan nan nan nan nan nan nan nan nan nan 224 225 225 217 209 208 212 213 213 217 225 231 231 228 231 237 235 226 217 213 208 205
nan nan nan nan nan nan nan nan nan nan nan nan nan nan nan nan nan nan nan nan nan 222 221 211 204 208 212 212 216 228 235 237 234 229 228 231 230 225 222 220 216 212
nan nan nan nan nan nan nan nan nan nan nan nan nan nan nan nan nan nan nan nan nan nan nan nan nan nan nan 214 226 236 241 244 241 233 228 228 226 224 224 224 221 216
nan nan nan nan nan nan nan nan nan nan nan nan nan nan nan nan nan nan nan nan nan nan nan nan nan nan nan 217 228 239 246 250 243 233 227 226 226 227 232 234 230 225
nan nan nan nan nan nan nan nan nan nan nan nan nan nan nan nan nan nan nan nan nan nan nan nan nan 215 217 nan nan 239 249 251 247 235 228 230 230 229 235 239 237 236
nan nan nan nan nan nan nan nan nan nan nan nan nan nan nan nan nan nan nan nan nan nan nan nan nan nan 224 226 232 243 248 250 248 242 237 240 243 240 238 237 234 236
nan nan nan nan nan nan nan nan nan nan nan nan nan nan nan nan nan nan nan nan nan nan nan nan nan nan nan 231 233 239 245 247 248 245 242 242 244 243 242 243 238 233
nan nan nan nan nan nan nan nan nan nan nan nan nan nan nan nan nan nan nan nan nan nan nan nan nan nan nan nan nan 235 239 242 243 244 242 239 240 241 242 244 242 237
nan nan nan nan nan nan nan nan nan nan nan nan nan nan nan nan nan nan nan nan nan nan nan nan nan nan nan nan nan nan nan 238 240 241 241 239 238 239 241 242 244 245
nan nan nan nan nan nan nan nan nan nan nan nan nan nan nan nan nan nan nan nan nan nan nan nan nan nan nan nan nan nan nan nan 238 239 239 239 239 239 240 241 243 244
nan nan nan nan nan nan nan nan nan nan nan nan nan nan nan nan nan nan nan nan nan nan nan nan nan nan nan nan nan nan nan nan nan 237 237 238 240 241 241 241 241 243
nan nan nan nan nan nan nan nan nan nan nan nan nan nan nan nan nan nan nan nan nan nan nan nan nan nan nan nan nan nan nan nan nan nan nan 236 238 240 241 241 241 243
nan nan nan nan nan nan nan nan nan nan nan nan nan nan nan nan nan nan nan nan nan nan nan nan nan nan nan nan nan nan nan nan nan nan nan nan 238 239 241 243 241 241
nan nan nan nan nan nan nan nan nan nan nan nan nan nan nan nan nan nan nan nan nan nan nan nan nan nan nan nan nan nan nan nan nan nan nan nan nan nan 239 242 243 242
nan nan nan nan nan nan nan nan nan nan nan nan nan nan nan nan nan nan nan nan nan nan nan nan nan nan nan nan nan nan nan nan nan nan nan nan nan nan 240 241 243 244
nan nan nan nan nan nan nan nan nan nan nan nan nan nan nan nan nan nan nan nan nan nan nan nan nan nan nan nan nan nan nan nan nan nan nan nan nan nan nan nan 243 247
nan nan nan nan nan nan nan nan nan nan nan nan nan nan nan nan nan nan nan nan nan nan nan nan nan nan nan nan nan nan nan nan nan nan nan nan nan nan 241 242 241 242
nan nan nan nan nan nan nan nan nan nan nan nan nan nan nan nan nan nan nan nan nan nan nan nan nan nan nan nan nan nan nan nan nan nan nan nan nan 239 241 242 241 240